Hourly Weather Spreitenbach

Today, 18 April, Sunday

Time Temperature Precipitation Wind Pressure Humidity
00:00 +4°C° 0 mm 1 mps 720 mmHg 91%
01:00 +4°C° 0 mm 1 mps 720 mmHg 96%
02:00 +3°C° 0 mm 1 mps 720 mmHg 95%
03:00 +3°C° 0 mm 1 mps 720 mmHg 94%
04:00 +3°C° 0 mm 1 mps 720 mmHg 93%
05:00 +3°C° 0.1 mm 1 mps 720 mmHg 94%
06:00 +2°C° 0.1 mm 0 mps 720 mmHg 96%
07:00 +2°C° 0 mm 0 mps 720 mmHg 97%
08:00 +3°C° 0.1 mm 0 mps 720 mmHg 96%
09:00 +3°C° 0.1 mm 0 mps 720 mmHg 95%
10:00 +4°C° 0.1 mm 0 mps 721 mmHg 94%
11:00 +5°C° 0.1 mm 1 mps 721 mmHg 89%
12:00 +6°C° 0.1 mm 1 mps 721 mmHg 85%
13:00 +7°C° 0.1 mm 1 mps 721 mmHg 80%
14:00 +7°C° 0.1 mm 1 mps 720 mmHg 78%
15:00 +7°C° 0.1 mm 1 mps 720 mmHg 77%
16:00 +8°C° 0.1 mm 1 mps 720 mmHg 76%
17:00 +7°C° 0.1 mm 1 mps 720 mmHg 80%
18:00 +6°C° 0.1 mm 1 mps 720 mmHg 85%
19:00 +5°C° 0.1 mm 1 mps 721 mmHg 90%
20:00 +5°C° 0 mm 1 mps 721 mmHg 91%
21:00 +3°C° 0 mm 0 mps 721 mmHg 93%
22:00 +3°C° 0 mm 0 mps 721 mmHg 94%
23:00 +2°C° 0 mm 0 mps 721 mmHg 94%

Tomorrow, 19 April, Monday

Time Temperature Precipitation Wind Pressure Humidity
00:00 +2°C° 0 mm 0 mps 721 mmHg 94%
01:00 +2°C° 0 mm 0 mps 721 mmHg 94%
02:00 +2°C° 0 mm 0 mps 721 mmHg 95%
03:00 +2°C° 0 mm 0 mps 721 mmHg 95%
04:00 +2°C° 0 mm 0 mps 720 mmHg 95%
05:00 +2°C° 0 mm 0 mps 721 mmHg 93%
06:00 +2°C° 0 mm 0 mps 721 mmHg 91%
07:00 +3°C° 0 mm 0 mps 721 mmHg 90%
08:00 +5°C° 0 mm 0 mps 721 mmHg 81%
09:00 +7°C° 0 mm 1 mps 721 mmHg 72%
10:00 +9°C° 0 mm 1 mps 721 mmHg 64%
11:00 +10°C° 0 mm 1 mps 720 mmHg 60%
12:00 +10°C° 0 mm 1 mps 720 mmHg 55%
13:00 +11°C° 0 mm 1 mps 720 mmHg 51%
14:00 +11°C° 0 mm 1 mps 720 mmHg 53%
15:00 +11°C° 0 mm 1 mps 719 mmHg 54%
16:00 +11°C° 0 mm 1 mps 719 mmHg 55%
17:00 +10°C° 0 mm 1 mps 719 mmHg 63%
18:00 +8°C° 0 mm 1 mps 719 mmHg 71%
19:00 +6°C° 0 mm 0 mps 719 mmHg 79%
20:00 +6°C° 0 mm 1 mps 719 mmHg 83%
21:00 +5°C° 0 mm 1 mps 719 mmHg 87%
22:00 +4°C° 0 mm 1 mps 719 mmHg 91%
23:00 +3°C° 0 mm 1 mps 719 mmHg 92%

Day after tomorrow, 20 April, Tuesday

Time Temperature Precipitation Wind Pressure Humidity
00:00 +3°C° 0 mm 1 mps 719 mmHg 92%
01:00 +2°C° 0 mm 1 mps 719 mmHg 93%
02:00 +2°C° 0 mm 1 mps 719 mmHg 93%
03:00 +2°C° 0 mm 1 mps 719 mmHg 93%
04:00 +1°C° 0 mm 1 mps 719 mmHg 93%
05:00 +1°C° 0 mm 0 mps 719 mmHg 90%
06:00 +2°C° 0 mm 0 mps 719 mmHg 87%
07:00 +3°C° 0 mm 0 mps 719 mmHg 83%
08:00 +5°C° 0 mm 0 mps 719 mmHg 75%
09:00 +9°C° 0 mm 1 mps 719 mmHg 67%
10:00 +11°C° 0 mm 1 mps 719 mmHg 59%
11:00 +12°C° 0 mm 1 mps 719 mmHg 55%
12:00 +13°C° 0 mm 1 mps 718 mmHg 52%
13:00 +14°C° 0 mm 1 mps 718 mmHg 48%
14:00 +14°C° 0.1 mm 2 mps 718 mmHg 49%
15:00 +14°C° 0.1 mm 2 mps 717 mmHg 50%
16:00 +14°C° 0.1 mm 2 mps 717 mmHg 50%
17:00 +12°C° 0 mm 2 mps 717 mmHg 58%
18:00 +10°C° 0 mm 1 mps 717 mmHg 67%
19:00 +9°C° 0 mm 1 mps 717 mmHg 75%
20:00 +8°C° 0 mm 1 mps 718 mmHg 79%
21:00 +6°C° 0 mm 1 mps 718 mmHg 84%
22:00 +5°C° 0 mm 1 mps 718 mmHg 88%
23:00 +4°C° 0 mm 1 mps 718 mmHg 89%

21 April, Wednesday

Time Temperature Precipitation Wind Pressure Humidity
00:00 +4°C° 0 mm 1 mps 718 mmHg 90%
01:00 +3°C° 0 mm 1 mps 719 mmHg 91%
02:00 +3°C° 0 mm 1 mps 719 mmHg 91%
03:00 +3°C° 0 mm 1 mps 719 mmHg 92%
04:00 +2°C° 0 mm 1 mps 719 mmHg 92%
05:00 +2°C° 0 mm 0 mps 719 mmHg 89%
06:00 +3°C° 0 mm 0 mps 719 mmHg 85%
07:00 +4°C° 0 mm 0 mps 719 mmHg 82%
08:00 +7°C° 0 mm 0 mps 719 mmHg 73%
09:00 +10°C° 0 mm 1 mps 719 mmHg 64%
10:00 +13°C° 0 mm 1 mps 719 mmHg 55%
11:00 +14°C° 0 mm 1 mps 719 mmHg 50%
12:00 +15°C° 0 mm 1 mps 719 mmHg 45%
13:00 +18°C° 0 mm 1 mps 718 mmHg 41%
14:00 +18°C° 0 mm 1 mps 718 mmHg 41%
15:00 +17°C° 0 mm 2 mps 718 mmHg 41%
16:00 +17°C° 0 mm 2 mps 718 mmHg 42%
17:00 +15°C° 0.2 mm 2 mps 718 mmHg 56%
18:00 +12°C° 0.2 mm 2 mps 718 mmHg 70%
19:00 +9°C° 0.2 mm 2 mps 718 mmHg 83%
20:00 +9°C° 0 mm 1 mps 719 mmHg 86%
21:00 +8°C° 0 mm 1 mps 719 mmHg 89%
22:00 +7°C° 0 mm 1 mps 720 mmHg 92%
23:00 +6°C° 0 mm 1 mps 720 mmHg 92%

22 April, Thursday

Time Temperature Precipitation Wind Pressure Humidity
00:00 +6°C° 0 mm 1 mps 720 mmHg 92%
01:00 +5°C° 0 mm 1 mps 720 mmHg 93%
02:00 +5°C° 0 mm 1 mps 720 mmHg 93%
03:00 +4°C° 0 mm 1 mps 721 mmHg 93%
04:00 +4°C° 0 mm 1 mps 721 mmHg 93%
05:00 +4°C° 0 mm 0 mps 721 mmHg 91%
06:00 +5°C° 0 mm 0 mps 721 mmHg 89%
07:00 +5°C° 0 mm 0 mps 722 mmHg 87%
08:00 +8°C° 0 mm 0 mps 722 mmHg 77%
09:00 +11°C° 0 mm 1 mps 722 mmHg 68%
10:00 +14°C° 0 mm 1 mps 722 mmHg 58%
11:00 +15°C° 0 mm 1 mps 722 mmHg 53%
12:00 +16°C° 0 mm 1 mps 722 mmHg 48%
13:00 +17°C° 0 mm 2 mps 722 mmHg 43%
14:00 +17°C° 0 mm 2 mps 722 mmHg 44%
15:00 +16°C° 0 mm 2 mps 722 mmHg 45%
16:00 +16°C° 0 mm 2 mps 722 mmHg 45%
17:00 +15°C° 0 mm 2 mps 722 mmHg 54%
18:00 +13°C° 0 mm 2 mps 722 mmHg 63%
19:00 +10°C° 0 mm 2 mps 722 mmHg 72%
20:00 +9°C° 0 mm 2 mps 723 mmHg 74%
21:00 +7°C° 0 mm 2 mps 723 mmHg 76%
22:00 +5°C° 0 mm 2 mps 724 mmHg 77%
23:00 +4°C° 0 mm 2 mps 724 mmHg 79%

23 April, Friday

Time Temperature Precipitation Wind Pressure Humidity
00:00 +5°C° 0 mm 1 mps 724 mmHg 80%
01:00 +4°C° 0 mm 1 mps 724 mmHg 82%
02:00 +3°C° 0 mm 1 mps 724 mmHg 84%
03:00 +3°C° 0 mm 1 mps 724 mmHg 85%
04:00 +2°C° 0 mm 1 mps 724 mmHg 87%
05:00 +3°C° 0 mm 1 mps 724 mmHg 82%
06:00 +4°C° 0 mm 1 mps 724 mmHg 78%
07:00 +5°C° 0 mm 1 mps 724 mmHg 73%
08:00 +6°C° 0 mm 2 mps 724 mmHg 65%
09:00 +9°C° 0 mm 2 mps 724 mmHg 57%
10:00 +11°C° 0 mm 3 mps 724 mmHg 48%
11:00 +13°C° 0 mm 3 mps 724 mmHg 44%
12:00 +14°C° 0 mm 3 mps 723 mmHg 40%
13:00 +17°C° 0 mm 4 mps 723 mmHg 36%
14:00 +17°C° 0 mm 4 mps 722 mmHg 36%
15:00 +17°C° 0 mm 4 mps 722 mmHg 37%
16:00 +17°C° 0 mm 4 mps 722 mmHg 37%
17:00 +14°C° 0 mm 3 mps 722 mmHg 46%
18:00 +12°C° 0 mm 3 mps 722 mmHg 56%
19:00 +12°C° 0 mm 2 mps 722 mmHg 65%
20:00 +9°C° 0 mm 2 mps 722 mmHg 72%
21:00 +8°C° 0 mm 1 mps 722 mmHg 78%
22:00 +6°C° 0 mm 1 mps 722 mmHg 85%
23:00 +6°C° 0 mm 1 mps 722 mmHg 86%
Show more

We Need Your Consent

Meteoprog and our Service Providers may store and access personal data such as cookies, device identifiers or other similar technologies on your device and process such data to personalise content and ads, as well as provide social media features and to analyse the traffic.

  • Store and/or access information on your device

    Cookies, device identifiers or other information can be stored or accessed on your device for the purposes indicated above.

  • Personalised ads and content, ad and content measurement, audience insights, and products development

    Ads and content can be personalised based on a profile. More data can be added to better personalise ads and content. Ad and content performance can be measured. Insights about the audience who saw the ads and content can be derived. Such data can be used to develop or improve user’s experience, systems and software.

By clicking ‘I Agree’ you will allow the use of indicated cookies, device identifiers, web beacons or other similar technologies. Your settings can be changed in the browser on your device.

For certain purposes, legitimate interests may be relied on, rather than consent. You can read more about this in our Privacy and Cookie Policy.